Regional Weather Roundup
Issued by NWS Sioux Falls, SD

Home | Current Version | Previous Version | Text Only | Print | Product List | Glossary Off
Versions: 1 2 3 4 5 6 7 8 9 10 11 12 13 14 15 16 17 18 19 20 21 22 23 24 25 26 27 28 29 30 31 32 33 34 35 36 37 38 39 40 41 42 43 44 45 46 47 48 49 50

000
ASUS43 KFSD 280910
RWRFSD

WEATHER ROUNDUP FOR SE SOUTH DAKOTA/SW MINNESOTA/NW IOWA
NATIONAL WEATHER SERVICE SIOUX FALLS SD
400 AM CDT TUE JUL 28 2015

NOTE: "FAIR" INDICATES FEW OR NO CLOUDS BELOW 12,000 FEET WITH NO
SIGNIFICANT WEATHER AND OR OBSTRUCTIONS TO VISIBILITY.


SDZ038>040-050-052>070-281000-
SOUTHEAST SOUTH DAKOTA

CITY           SKY/WX    TMP DP  RH WIND       PRES   REMARKS
BROOKINGS      CLOUDY    70  64  83 CALM      29.80S
CHAMBERLAIN    CLOUDY    67  67  98 SW3       29.69F
HURON          CLOUDY    68  66  93 SW9       29.71R
MADISON        TSTM      66  66 100 CALM      29.77F
MITCHELL       CLOUDY    69  68  96 E5        29.71F
SIOUX FALLS    LGT RAIN  72  68  87 W7G22     29.77R
WINNER         FAIR      67  64  90 NW8       29.75R
YANKTON        CLOUDY    68  64  88 MISG      29.80R THUNDER VSB 1/2
$$

MNZ071-072-080-081-089-090-097-098-281000-
SOUTHWEST MINNESOTA

CITY           SKY/WX    TMP DP  RH WIND       PRES   REMARKS
FAIRMONT       PTCLDY    72  63  73 S15       29.81F
JACKSON        MOCLDY    72  68  88 S17       29.81R
LUVERNE        TSTM      73  70  88 SW3       29.78R
MARSHALL       CLOUDY    73  66  78 SW14      29.77R THUNDER
MONTEVIDEO     TSTM      70  66  88 W3        29.72F
PIPESTONE      TSTM      70  66  88 NW23G41   29.88R
REDWOOD FALLS  CLOUDY    73  66  78 SE18G25   29.71F
TRACY          CLOUDY    73  68  83 S16G31    29.72F
WINDOM         CLOUDY    73  66  78 SE15G23   29.77F
WORTHINGTON    MOCLDY    72  64  78 S15G22    29.77F
$$

IAZ001>003-012>014-020>022-031-032-NEZ013-014-SDZ071-281000-
NORTHWEST IOWA

CITY           SKY/WX    TMP DP  RH WIND       PRES   REMARKS
CHEROKEE       PTCLDY    72  71  96 S9        29.80F THUNDER
DENISON        PTCLDY    73  70  88 S18G24    29.79F
ESTHERVILLE    MOCLDY    70  68  93 S13G23    29.81F
LE MARS        RAIN      73  72  94 S25G39    29.72F
ORANGE CITY    CLOUDY    72  70  94 SE12      29.75F
SHELDON        MOCLDY    72  70  94 S18G29    29.74F
SIOUX CITY     MOCLDY    75  70  84 SE15      29.74F
SPENCER        PTCLDY    73  68  84 S16G24    29.80F
STORM LAKE     MOCLDY    72  70  94 S12       29.83S
$$

ABBREVIATIONS USED IN REMARKS
   TC - TEMPERATURE IN CELSIUS
  WCI - WIND CHILL INDEX
   HX - HEAT INDEX
  VSB - VISIBILITY




USA.gov is the U.S. government's official web portal to all federal, state and local government web resources and services.